Regional Weather Roundup
Issued by NWS

Home | Current Version | Previous Version | Graphics & Text | Print | Product List | Glossary On
Versions: 1 2 3 4 5 6 7 8 9 10 11 12 13 14 15 16 17 18 19 20 21 22 23 24 25 26 27 28 29 30 31 32 33 34 35 36 37 38 39 40 41 42 43 44 45 46 47 48 49 50
000
ASUS43 KBIS 261710
RWRND

NORTH DAKOTA REGIONAL WEATHER ROUNDUP
NATIONAL WEATHER SERVICE BISMARCK ND
1100 AM CST WED NOV 26 2014

NOTE: "FAIR" INDICATES FEW OR NO CLOUDS BELOW 12,000 FEET WITH NO
SIGNIFICANT WEATHER AND/OR OBSTRUCTIONS TO VISIBILITY.


NDZ001>003-009>011-017-261800-
NORTHWEST NORTH DAKOTA

CITY           SKY/WX    TMP DP  RH WIND       PRES   REMARKS
WILLISTON      CLOUDY    11   4  73 NE3       30.36R
MINOT          CLOUDY     3  -3  76 N6        30.39R WCI  -8
MINOT AFB      CLOUDY     2  -2  81 N6        30.40R WCI  -9
$$

NDZ018>021-031>035-040>046-261800-
SOUTHWEST NORTH DAKOTA

CITY           SKY/WX    TMP DP  RH WIND       PRES   REMARKS
BISMARCK       LGT SNOW   9   2  73 NE6       30.38R WCI  -1
DICKINSON      CLOUDY    19  13  77 N5        30.26R WCI  12
GARRISON         N/A      7   2  80 NE3       30.36R
HETTINGER ARPT LGT SNOW  24  19  81 W3        30.25R
$$

NDZ004>008-012>016-024-026-027-054-261800-
NORTHEAST NORTH DAKOTA

CITY           SKY/WX    TMP DP  RH WIND       PRES   REMARKS
GRAND FORKS    PTSUNNY    1  -7  68 N16       30.45R WCI -19
GRND FRKS AFB  FLURRIES  -1  -8  71 N14       30.45R WCI -19
DEVILS LAKE    CLOUDY     1 -11  55 N10       30.38R WCI -14
$$

NDZ022-023-025-028>030-036>039-047>053-261800-
SOUTHEAST NORTH DAKOTA

CITY           SKY/WX    TMP DP  RH WIND       PRES   REMARKS
FARGO          CLOUDY     6  -4  63 N18       30.40R WCI -13
JAMESTOWN      CLOUDY     3  -5  69 N13       30.37R WCI -14
$$




USA.gov is the U.S. government's official web portal to all federal, state and local government web resources and services.